Time,TemperatureF,DewpointF,PressureIn,WindDirection,WindDirectionDegrees,WindSpeedMPH,WindSpeedGustMPH,Humidity,HourlyPrecipIn,Conditions,Clouds,dailyrainin,SoftwareType,DateUTC
2013-03-28 00:08:00,26.9,21.0,29.59,NE,39,0.0,0.0,79,0.00,,,0.00,weatherlink.com 1.10,2013-03-28 05:08:00,
2013-03-28 00:23:00,26.7,21.0,29.59,NE,39,0.0,0.0,80,0.00,,,0.00,weatherlink.com 1.10,2013-03-28 05:23:00,
2013-03-28 00:38:00,26.3,22.0,29.59,NE,39,0.0,0.0,82,0.00,,,0.00,weatherlink.com 1.10,2013-03-28 05:38:00,
2013-03-28 00:53:00,25.9,22.0,29.59,NE,39,0.0,0.0,84,0.00,,,0.00,weatherlink.com 1.10,2013-03-28 05:53:00,
2013-03-28 01:08:00,25.7,22.0,29.59,NE,39,0.0,0.0,86,0.00,,,0.00,weatherlink.com 1.10,2013-03-28 06:08:00,
2013-03-28 01:23:00,25.1,22.0,29.59,NE,39,0.0,0.0,86,0.00,,,0.00,weatherlink.com 1.10,2013-03-28 06:23:00,
2013-03-28 01:38:00,24.2,21.0,29.59,NE,39,0.0,0.0,88,0.00,,,0.00,weatherlink.com 1.10,2013-03-28 06:38:00,
2013-03-28 01:53:00,24.4,22.0,29.59,NE,39,0.0,0.0,89,0.00,,,0.00,weatherlink.com 1.10,2013-03-28 06:53:00,
2013-03-28 02:08:00,24.4,22.0,29.59,NE,39,0.0,0.0,90,0.00,,,0.00,weatherlink.com 1.10,2013-03-28 07:08:00,
2013-03-28 02:23:00,24.8,23.0,29.59,NE,39,0.0,0.0,91,0.00,,,0.00,weatherlink.com 1.10,2013-03-28 07:23:00,
2013-03-28 02:38:00,24.2,22.0,29.59,NE,39,0.0,0.0,90,0.00,,,0.00,weatherlink.com 1.10,2013-03-28 07:38:00,
2013-03-28 02:53:00,23.7,21.0,29.59,NE,38,0.0,0.0,90,0.00,,,0.00,weatherlink.com 1.10,2013-03-28 07:53:00,
2013-03-28 03:08:00,23.7,22.0,29.59,NE,39,0.0,0.0,91,0.00,,,0.00,weatherlink.com 1.10,2013-03-28 08:08:00,
2013-03-28 03:23:00,23.4,21.0,29.59,NE,39,0.0,0.0,91,0.00,,,0.00,weatherlink.com 1.10,2013-03-28 08:23:00,
2013-03-28 03:38:00,23.2,21.0,29.58,NE,38,0.0,0.0,92,0.00,,,0.00,weatherlink.com 1.10,2013-03-28 08:38:00,
2013-03-28 03:53:00,23.0,21.0,29.58,NE,39,0.0,0.0,92,0.00,,,0.00,weatherlink.com 1.10,2013-03-28 08:53:00,
2013-03-28 04:08:00,22.9,21.0,29.58,NE,38,0.0,0.0,92,0.00,,,0.00,weatherlink.com 1.10,2013-03-28 09:08:00,
2013-03-28 04:23:00,22.7,21.0,29.58,NE,38,0.0,0.0,93,0.00,,,0.00,weatherlink.com 1.10,2013-03-28 09:23:00,
2013-03-28 04:38:00,22.7,21.0,29.59,NE,39,0.0,0.0,93,0.00,,,0.00,weatherlink.com 1.10,2013-03-28 09:38:00,
2013-03-28 04:53:00,22.3,21.0,29.59,NE,39,0.0,0.0,93,0.00,,,0.00,weatherlink.com 1.10,2013-03-28 09:53:00,
2013-03-28 05:09:00,22.3,21.0,29.59,NE,39,0.0,0.0,93,0.00,,,0.00,weatherlink.com 1.10,2013-03-28 10:09:00,
2013-03-28 05:24:00,22.3,21.0,29.58,NE,38,0.0,0.0,93,0.00,,,0.00,weatherlink.com 1.10,2013-03-28 10:24:00,
2013-03-28 05:39:00,22.4,21.0,29.59,NE,39,0.0,0.0,93,0.00,,,0.00,weatherlink.com 1.10,2013-03-28 10:39:00,
2013-03-28 05:54:00,22.3,21.0,29.59,NE,39,0.0,0.0,93,0.00,,,0.00,weatherlink.com 1.10,2013-03-28 10:54:00,
2013-03-28 06:09:00,22.1,20.0,29.59,NE,39,0.0,0.0,93,0.00,,,0.00,weatherlink.com 1.10,2013-03-28 11:09:00,
2013-03-28 06:24:00,22.0,20.0,29.59,NE,39,0.0,0.0,93,0.00,,,0.00,weatherlink.com 1.10,2013-03-28 11:24:00,
2013-03-28 06:39:00,21.7,20.0,29.59,NE,39,0.0,0.0,93,0.00,,,0.00,weatherlink.com 1.10,2013-03-28 11:39:00,
2013-03-28 06:54:00,21.5,20.0,29.59,NE,39,0.0,0.0,93,0.00,,,0.00,weatherlink.com 1.10,2013-03-28 11:54:00,
2013-03-28 07:09:00,21.5,20.0,29.59,NE,38,0.0,0.0,94,0.00,,,0.00,weatherlink.com 1.10,2013-03-28 12:09:00,
2013-03-28 07:24:00,21.6,20.0,29.59,NE,39,0.0,0.0,94,0.00,,,0.00,weatherlink.com 1.10,2013-03-28 12:24:00,
2013-03-28 07:39:00,22.1,21.0,29.59,NE,39,0.0,0.0,94,0.00,,,0.00,weatherlink.com 1.10,2013-03-28 12:39:00,
2013-03-28 07:54:00,23.1,22.0,29.59,NE,39,0.0,0.0,95,0.00,,,0.00,weatherlink.com 1.10,2013-03-28 12:54:00,
2013-03-28 08:09:00,24.6,23.0,29.59,NE,39,0.0,0.0,94,0.00,,,0.00,weatherlink.com 1.10,2013-03-28 13:09:00,
2013-03-28 08:24:00,26.1,25.0,29.60,NE,39,0.0,0.0,94,0.00,,,0.00,weatherlink.com 1.10,2013-03-28 13:24:00,
2013-03-28 08:39:00,28.2,26.0,29.60,NE,39,0.0,0.0,92,0.00,,,0.00,weatherlink.com 1.10,2013-03-28 13:39:00,
2013-03-28 08:54:00,28.6,24.0,29.60,NE,39,0.0,0.0,84,0.00,,,0.00,weatherlink.com 1.10,2013-03-28 13:54:00,
2013-03-28 09:09:00,30.1,24.0,29.60,NE,39,0.0,0.0,79,0.00,,,0.00,weatherlink.com 1.10,2013-03-28 14:09:00,
2013-03-28 09:24:00,31.5,24.0,29.61,NE,37,0.0,1.0,75,0.00,,,0.00,weatherlink.com 1.10,2013-03-28 14:24:00,
2013-03-28 09:39:00,32.4,25.0,29.60,NE,47,1.0,2.0,74,0.00,,,0.00,weatherlink.com 1.10,2013-03-28 14:39:00,
2013-03-28 09:54:00,33.7,26.0,29.60,ENE,70,0.0,2.0,73,0.00,,,0.00,weatherlink.com 1.10,2013-03-28 14:54:00,
2013-03-28 10:09:00,37.3,25.0,29.60,WNW,294,1.0,2.0,61,0.00,,,0.00,weatherlink.com 1.10,2013-03-28 15:09:00,
2013-03-28 10:24:00,39.1,24.0,29.60,West,277,1.0,2.0,56,0.00,,,0.00,weatherlink.com 1.10,2013-03-28 15:24:00,
2013-03-28 10:39:00,39.3,23.0,29.59,WSW,246,2.0,4.0,52,0.00,,,0.00,weatherlink.com 1.10,2013-03-28 15:39:00,
2013-03-28 10:54:00,40.2,23.0,29.60,NNW,330,1.0,5.0,50,0.00,,,0.00,weatherlink.com 1.10,2013-03-28 15:54:00,
2013-03-28 11:09:00,41.4,22.0,29.60,South,190,1.0,4.0,46,0.00,,,0.00,weatherlink.com 1.10,2013-03-28 16:09:00,
2013-03-28 11:24:00,42.1,23.0,29.60,West,281,4.0,4.0,46,0.00,,,0.00,weatherlink.com 1.10,2013-03-28 16:24:00,
2013-03-28 11:39:00,42.0,21.0,29.60,NW,309,2.0,7.0,44,0.00,,,0.00,weatherlink.com 1.10,2013-03-28 16:39:00,
2013-03-28 11:54:00,43.1,22.0,29.60,North,358,0.0,4.0,44,0.00,,,0.00,weatherlink.com 1.10,2013-03-28 16:54:00,
2013-03-28 12:10:00,43.1,21.0,29.60,SW,226,1.0,4.0,42,0.00,,,0.00,weatherlink.com 1.10,2013-03-28 17:10:00,
2013-03-28 12:24:00,43.2,22.0,29.59,NNE,16,2.0,5.0,43,0.00,,,0.00,weatherlink.com 1.10,2013-03-28 17:24:00,
2013-03-28 12:40:00,43.5,23.0,29.59,NNW,346,3.0,5.0,44,0.00,,,0.00,weatherlink.com 1.10,2013-03-28 17:40:00,
2013-03-28 12:55:00,43.7,21.0,29.59,North,1,3.0,4.0,40,0.00,,,0.00,weatherlink.com 1.10,2013-03-28 17:55:00,
2013-03-28 13:10:00,43.8,20.0,29.59,West,264,6.0,8.0,39,0.00,,,0.00,weatherlink.com 1.10,2013-03-28 18:10:00,
2013-03-28 13:25:00,44.3,21.0,29.58,North,5,3.0,5.0,40,0.00,,,0.00,weatherlink.com 1.10,2013-03-28 18:25:00,
2013-03-28 13:40:00,44.7,22.0,29.58,North,1,0.0,4.0,41,0.00,,,0.00,weatherlink.com 1.10,2013-03-28 18:40:00,
2013-03-28 13:55:00,44.4,22.0,29.57,North,11,1.0,6.0,41,0.00,,,0.00,weatherlink.com 1.10,2013-03-28 18:55:00,
2013-03-28 14:10:00,44.5,22.0,29.57,North,1,2.0,4.0,41,0.00,,,0.00,weatherlink.com 1.10,2013-03-28 19:10:00,
2013-03-28 14:25:00,45.3,23.0,29.57,NNW,346,2.0,4.0,41,0.00,,,0.00,weatherlink.com 1.10,2013-03-28 19:25:00,
2013-03-28 14:40:00,45.3,22.0,29.56,WSW,238,4.0,6.0,40,0.00,,,0.00,weatherlink.com 1.10,2013-03-28 19:40:00,
2013-03-28 14:55:00,45.1,24.0,29.55,NNW,329,1.0,6.0,43,0.00,,,0.00,weatherlink.com 1.10,2013-03-28 19:55:00,
2013-03-28 15:10:00,45.8,24.0,29.55,NNE,24,0.0,4.0,43,0.00,,,0.00,weatherlink.com 1.10,2013-03-28 20:10:00,
2013-03-28 15:25:00,46.1,24.0,29.55,NNW,338,0.0,8.0,42,0.00,,,0.00,weatherlink.com 1.10,2013-03-28 20:25:00,
2013-03-28 15:40:00,45.7,24.0,29.54,West,262,3.0,6.0,42,0.00,,,0.00,weatherlink.com 1.10,2013-03-28 20:40:00,
2013-03-28 15:55:00,45.6,24.0,29.54,North,354,4.0,5.0,43,0.00,,,0.00,weatherlink.com 1.10,2013-03-28 20:55:00,
2013-03-28 16:10:00,45.6,24.0,29.54,North,1,0.0,4.0,43,0.00,,,0.00,weatherlink.com 1.10,2013-03-28 21:10:00,
2013-03-28 16:25:00,45.8,25.0,29.54,NNE,23,0.0,4.0,44,0.00,,,0.00,weatherlink.com 1.10,2013-03-28 21:25:00,
2013-03-28 16:40:00,46.3,25.0,29.54,NW,311,2.0,4.0,43,0.00,,,0.00,weatherlink.com 1.10,2013-03-28 21:40:00,
2013-03-28 16:55:00,45.9,25.0,29.53,NW,322,2.0,4.0,44,0.00,,,0.00,weatherlink.com 1.10,2013-03-28 21:55:00,
2013-03-28 17:10:00,46.3,26.0,29.53,North,1,2.0,4.0,46,0.00,,,0.00,weatherlink.com 1.10,2013-03-28 22:10:00,
2013-03-28 17:25:00,46.2,26.0,29.53,WNW,298,3.0,3.0,45,0.00,,,0.00,weatherlink.com 1.10,2013-03-28 22:25:00,
2013-03-28 17:40:00,45.9,27.0,29.53,West,269,2.0,2.0,47,0.00,,,0.00,weatherlink.com 1.10,2013-03-28 22:40:00,
2013-03-28 17:55:00,45.9,26.0,29.53,NW,309,1.0,4.0,46,0.00,,,0.00,weatherlink.com 1.10,2013-03-28 22:55:00,
2013-03-28 18:10:00,45.3,26.0,29.53,North,351,1.0,2.0,48,0.00,,,0.00,weatherlink.com 1.10,2013-03-28 23:10:00,
2013-03-28 18:25:00,45.0,26.0,29.53,WNW,288,4.0,4.0,47,0.00,,,0.00,weatherlink.com 1.10,2013-03-28 23:25:00,
2013-03-28 18:40:00,43.9,26.0,29.53,WSW,243,1.0,3.0,50,0.00,,,0.00,weatherlink.com 1.10,2013-03-28 23:40:00,
2013-03-28 18:55:00,43.9,27.0,29.53,West,273,0.0,2.0,52,0.00,,,0.00,weatherlink.com 1.10,2013-03-28 23:55:00,
2013-03-28 19:10:00,43.0,27.0,29.53,WNW,291,0.0,2.0,54,0.00,,,0.00,weatherlink.com 1.10,2013-03-29 00:10:00,
2013-03-28 19:25:00,41.5,27.0,29.53,SW,214,1.0,2.0,57,0.00,,,0.00,weatherlink.com 1.10,2013-03-29 00:25:00,
2013-03-28 19:40:00,40.2,26.0,29.54,NW,325,0.0,0.0,58,0.00,,,0.00,weatherlink.com 1.10,2013-03-29 00:40:00,
2013-03-28 19:55:00,39.3,26.0,29.54,NW,324,0.0,0.0,60,0.00,,,0.00,weatherlink.com 1.10,2013-03-29 00:55:00,
2013-03-28 20:10:00,37.8,26.0,29.54,NW,324,0.0,0.0,63,0.00,,,0.00,weatherlink.com 1.10,2013-03-29 01:10:00,
2013-03-28 20:25:00,36.4,26.0,29.54,NW,324,0.0,0.0,67,0.00,,,0.00,weatherlink.com 1.10,2013-03-29 01:25:00,
2013-03-28 20:40:00,35.3,26.0,29.54,NW,325,0.0,0.0,70,0.00,,,0.00,weatherlink.com 1.10,2013-03-29 01:40:00,
2013-03-28 20:55:00,34.6,26.0,29.54,NW,325,0.0,0.0,70,0.00,,,0.00,weatherlink.com 1.10,2013-03-29 01:55:00,
2013-03-28 21:10:00,33.9,26.0,29.54,NW,324,0.0,0.0,74,0.00,,,0.00,weatherlink.com 1.10,2013-03-29 02:10:00,
2013-03-28 21:25:00,33.3,26.0,29.54,NW,325,0.0,0.0,75,0.00,,,0.00,weatherlink.com 1.10,2013-03-29 02:25:00,
2013-03-28 21:40:00,32.8,26.0,29.54,NW,324,0.0,0.0,76,0.00,,,0.00,weatherlink.com 1.10,2013-03-29 02:40:00,
2013-03-28 21:55:00,32.2,26.0,29.55,NW,324,0.0,0.0,77,0.00,,,0.00,weatherlink.com 1.10,2013-03-29 02:55:00,
2013-03-28 22:10:00,31.9,25.0,29.55,NW,324,0.0,0.0,77,0.00,,,0.00,weatherlink.com 1.10,2013-03-29 03:10:00,
2013-03-28 22:25:00,31.6,25.0,29.54,NW,325,0.0,0.0,78,0.00,,,0.00,weatherlink.com 1.10,2013-03-29 03:25:00,
2013-03-28 22:40:00,31.1,25.0,29.54,NW,324,0.0,0.0,78,0.00,,,0.00,weatherlink.com 1.10,2013-03-29 03:40:00,
2013-03-28 22:55:00,30.9,25.0,29.54,NW,325,0.0,0.0,80,0.00,,,0.00,weatherlink.com 1.10,2013-03-29 03:55:00,
2013-03-28 23:10:00,30.6,25.0,29.54,NW,324,0.0,0.0,81,0.00,,,0.00,weatherlink.com 1.10,2013-03-29 04:10:00,
2013-03-28 23:25:00,30.4,26.0,29.54,NW,324,0.0,0.0,82,0.00,,,0.00,weatherlink.com 1.10,2013-03-29 04:25:00,
2013-03-28 23:40:00,30.0,25.0,29.54,NW,324,0.0,0.0,83,0.00,,,0.00,weatherlink.com 1.10,2013-03-29 04:40:00,
2013-03-28 23:55:00,30.0,26.0,29.54,NW,325,0.0,1.0,84,0.00,,,0.00,weatherlink.com 1.10,2013-03-29 04:55:00,